< < Back
Terminal Aerodrome Forecast


Current Version              Previous Versions:   1  2  3  4  5  6  7  8  9  

Terminal Aerodrome Forecast

847
FTUS44 KBMX 311100
TAFMGM
TAF
KMGM 311121Z 3112/0112 33005KT P6SM SKC
     FM311700 30008KT P6SM SCT070
     FM311900 31015G24KT P6SM BKN040
     FM010500 31014KT P6SM SCT040=

Latest METAR

414
SAUS80 KWBC 311100 RRA
MTRMGM
METAR KMGM 311053Z AUTO 00000KT 10SM CLR 04/03 A2999 RMK AO2 SLP155
T00440028


USA.gov is the U.S. government's official web portal to all federal, state and local government web resources and services.